TimeAKDT,TemperatureF,Dew PointF,Humidity,Sea Level PressureIn,VisibilityMPH,Wind Direction,Wind SpeedMPH,Gust SpeedMPH,PrecipitationIn,Events,Conditions,WindDirDegrees,DateUTC
12:23 AM,55.4,53.6,94,30.02,10.0,Calm,Calm,-,N/A,,Overcast,0,2013-08-13 08:23:00
12:30 AM,55.4,53.6,94,30.01,10.0,Calm,Calm,-,N/A,,Overcast,0,2013-08-13 08:30:00
12:41 AM,55.4,53.6,94,30.01,10.0,Calm,Calm,-,N/A,,Overcast,0,2013-08-13 08:41:00
12:53 AM,55.9,54.0,93,30.02,10.0,Calm,Calm,-,N/A,,Overcast,0,2013-08-13 08:53:00
1:01 AM,55.4,53.6,94,30.01,10.0,Calm,Calm,-,N/A,,Overcast,0,2013-08-13 09:01:00
1:12 AM,55.4,53.6,94,30.01,10.0,West,3.5,-,N/A,,Overcast,260,2013-08-13 09:12:00
1:53 AM,55.9,54.0,93,30.01,10.0,Calm,Calm,-,N/A,,Overcast,0,2013-08-13 09:53:00
2:53 AM,55.9,55.0,97,30.01,10.0,Calm,Calm,-,N/A,,Overcast,0,2013-08-13 10:53:00
3:03 AM,55.4,55.4,100,30.00,10.0,Calm,Calm,-,N/A,,Overcast,0,2013-08-13 11:03:00
3:18 AM,55.4,55.4,100,29.99,10.0,Calm,Calm,-,N/A,,Overcast,0,2013-08-13 11:18:00
3:53 AM,55.9,54.0,93,29.99,10.0,Calm,Calm,-,N/A,,Overcast,0,2013-08-13 11:53:00
4:32 AM,55.4,55.4,100,29.98,10.0,Calm,Calm,-,N/A,,Overcast,0,2013-08-13 12:32:00
4:53 AM,55.9,55.0,97,29.98,10.0,Calm,Calm,-,N/A,,Overcast,0,2013-08-13 12:53:00
5:12 AM,55.4,53.6,94,29.98,10.0,Calm,Calm,-,N/A,,Overcast,0,2013-08-13 13:12:00
5:53 AM,55.0,54.0,96,29.97,10.0,Calm,Calm,-,N/A,,Overcast,0,2013-08-13 13:53:00
6:45 AM,55.4,53.6,94,29.97,10.0,SSW,3.5,-,0.00,Rain,Light Rain,200,2013-08-13 14:45:00
6:53 AM,55.9,55.0,97,29.97,10.0,SSW,4.6,-,0.00,Rain,Light Rain,200,2013-08-13 14:53:00
7:53 AM,54.0,53.1,97,29.97,10.0,SSE,8.1,-,0.00,,Overcast,150,2013-08-13 15:53:00
8:21 AM,53.6,51.8,94,29.97,10.0,SSE,5.8,-,N/A,,Overcast,150,2013-08-13 16:21:00
8:53 AM,54.0,53.1,97,29.98,10.0,Calm,Calm,-,0.00,,Overcast,0,2013-08-13 16:53:00
9:53 AM,55.9,53.1,90,29.98,10.0,NNE,4.6,-,0.00,Rain,Light Rain,30,2013-08-13 17:53:00
10:53 AM,55.9,52.0,87,29.98,10.0,SE,10.4,-,0.01,,Overcast,140,2013-08-13 18:53:00
11:53 AM,55.0,51.1,86,29.99,10.0,ESE,12.7,19.6,0.01,Rain,Light Rain,120,2013-08-13 19:53:00
12:53 PM,55.9,52.0,87,29.99,10.0,East,8.1,-,0.00,,Overcast,100,2013-08-13 20:53:00
1:53 PM,55.9,52.0,87,29.99,10.0,ESE,10.4,-,0.00,Rain,Light Rain,110,2013-08-13 21:53:00
2:53 PM,57.0,50.0,77,29.99,10.0,East,15.0,20.7,0.00,,Overcast,100,2013-08-13 22:53:00
3:53 PM,60.1,51.1,72,29.98,10.0,East,19.6,24.2,N/A,,Scattered Clouds,90,2013-08-13 23:53:00
4:53 PM,57.9,50.0,75,29.98,10.0,East,16.1,24.2,N/A,,Overcast,80,2013-08-14 00:53:00
5:53 PM,59.0,50.0,72,29.99,10.0,East,11.5,20.7,N/A,,Overcast,90,2013-08-14 01:53:00
6:53 PM,57.9,48.9,72,29.98,10.0,ESE,10.4,-,N/A,,Overcast,110,2013-08-14 02:53:00
7:53 PM,57.9,50.0,75,29.99,10.0,East,8.1,-,0.00,,Overcast,100,2013-08-14 03:53:00
8:53 PM,57.0,48.9,74,30.00,10.0,East,8.1,-,N/A,,Overcast,100,2013-08-14 04:53:00
9:53 PM,55.9,48.9,77,30.01,10.0,East,8.1,-,N/A,,Overcast,100,2013-08-14 05:53:00
10:53 PM,55.0,48.9,80,30.01,10.0,East,8.1,-,N/A,,Partly Cloudy,80,2013-08-14 06:53:00
11:53 PM,54.0,48.9,83,30.01,10.0,East,8.1,-,N/A,,Partly Cloudy,90,2013-08-14 07:53:00